Home   Weather   Toamasina   Past weeks

Flag for Madagascar Past Weather in Toamasina, Madagascar — Yesterday and Last 2 Weeks

Now
73 °F

Passing clouds.


Feels Like: 70 °F
Forecast: 67 / 79 °F
Wind: 7 mph from Southeast

Location: Tamatave

Current Time: Sep 26, 2016 at 11:53:06 PM

Latest Report: Sep 26, 2016 at 11:00 PM


Visibility: N/A

Pressure: 30.15 "Hg

Humidity: 94%

Dew Point: 72 °F

Location of ToamasinaLocation

Past Weather in Toamasina — Graph

°F

Toamasina Temperature Yesterday

Maximum temperature yesterday: 79 °F (at 10:00 AM)
Minimum temperature yesterday: 64 °F (at 6:00 AM)
Average temperature yesterday: 72 °F

High & Low Weather Summary for the Past Weeks

 TemperatureHumidityPressure
High82 °F (Sep 26, 11:00 AM)100% (Sep 16, 12:00 AM)30.27 "Hg (Sep 16, 12:00 AM)
Low61 °F (Sep 13, 5:00 AM)51% (Sep 18, 2:00 PM)29.98 "Hg (Sep 25, 2:00 PM)
Average72 °F82%30.13 "Hg
* Reported Sep 11 10:00 PM — Sep 26 10:00 PM, Toamasina, Weather by CustomWeather, © 2016

Note: Actual official high and low records may vary slightly from our data, if they occured in-between our weather recording intervals... More about our weather records

Advertising

Toamasina Weather History for the Previous 24 Hours

Scroll right to see more
 ConditionsComfort  
Time TempWeatherWind HumidityBarometerVisibility
10:00 PM
Mon, Sep 26
75 °FPassing clouds.7 mph89%30.15 "HgN/A
9:00 PM75 °FPassing clouds.5 mph89%30.15 "HgN/A
8:00 PM75 °FPassing clouds.5 mph89%30.12 "HgN/A
7:00 PM75 °FPassing clouds.7 mph89%30.12 "HgN/A
6:00 PM77 °FPassing clouds.9 mph79%30.09 "HgN/A
5:00 PM77 °FScattered clouds.12 mph79%30.07 "HgN/A
4:00 PM79 °FPassing clouds.14 mph79%30.04 "HgN/A
3:00 PM79 °FPassing clouds.12 mph74%30.04 "HgN/A
2:00 PM81 °FPassing clouds.12 mph70%30.04 "HgN/A
1:00 PM82 °FPassing clouds.12 mph66%30.04 "HgN/A
12:00 PM81 °FScattered clouds.12 mph66%30.09 "HgN/A
11:00 AM82 °FScattered clouds.12 mph62%30.09 "HgN/A
10:00 AM81 °FScattered clouds.7 mph66%30.09 "HgN/A
9:00 AM79 °FScattered clouds.No wind65%30.09 "HgN/A
8:00 AM75 °FPassing clouds.5 mph78%30.09 "HgN/A
7:00 AM68 °FPassing clouds.5 mph94%30.07 "HgN/A
6:00 AM64 °FPassing clouds.No wind94%30.04 "HgN/A
5:00 AM64 °FPassing clouds.No wind94%30.04 "HgN/A
4:00 AM64 °FPassing clouds.No wind94%30.01 "HgN/A
3:00 AM64 °FPassing clouds.No wind100%30.01 "HgN/A
2:00 AM66 °FPassing clouds.No wind94%30.01 "HgN/A
1:00 AM66 °FPassing clouds.No wind100%30.01 "HgN/A
12:00 AM68 °FMild.N/A94%30.04 "HgN/A
11:00 PM
Sun, Sep 25
68 °FPassing clouds.2 mph100%30.04 "HgN/A
Weather by CustomWeather, © 2016

See weather overviewHow to use our weather pages